[[{"header":{"parameterUnit":"m.s-1","parameterCategory":1,"la1":30.2992,"la2":30.254,"lo1":-89.0895,"lo2":-89.0443,"dy":0.0025,"dx":0.0025,"nx":19,"ny":19,"refTime":"2026-05-15T21:00:00:Z","depth":0,"parameterNumber":2,"parameterNumberName":"U-component_of_WINDS"},"data":[0,0,0,-2.7777,-2.7779,-2.7833,-2.7833,-2.7922,-2.7923,0,0,0,0,0,0,0,0,0,0,0,-2.7773,-2.7774,-2.7777,-2.7779,-2.7833,-2.7833,-2.7922,-2.7923,0,0,0,0,0,0,0,0,0,0,0,-2.7772,-2.7774,-2.7775,-2.7779,-2.7833,-2.7833,-2.7922,-2.7874,0,0,0,0,0,0,0,0,0,0,-2.7818,-2.7825,-2.7773,-2.7775,-2.7779,-2.7833,-2.7833,-2.7871,-2.7877,-2.7906,0,-2.7935,0,-2.7931,-2.7931,-2.7931,0,0,0,-2.777,-2.7821,-2.7825,-2.7775,-2.778,-2.7833,-2.7806,-2.7874,-2.7881,-2.7914,-2.7936,-2.7939,-2.7932,-2.7931,-2.7932,-2.8127,-2.8128,0,0,-2.7767,-2.7789,-2.782,-2.7829,-2.7822,-2.7804,-2.7808,-2.7878,-2.7904,-2.7936,-2.794,-2.7934,-2.7932,-2.7933,-2.8125,-2.8127,0,0,0,-2.7764,-2.7788,-2.7789,-2.7826,-2.7834,-2.7806,-2.781,-2.7901,-2.7899,-2.7941,-2.7935,-2.7933,-2.7934,-2.8124,-2.8126,-2.8212,0,0,0,-2.7762,-2.7786,-2.7788,-2.7802,-2.7834,-2.7868,-2.7832,-2.7894,-2.7902,-2.7934,-2.7933,-2.7935,-2.8122,-2.8125,-2.8207,-2.825,0,0,0,-2.7765,-2.7786,-2.7798,-2.7803,-2.7827,-2.7867,-2.7869,-2.7895,-2.7898,-2.7931,-2.7935,-2.8121,-2.8124,-2.8202,-2.8242,-2.8308,0,0,0,-2.7775,-2.7875,-2.78,-2.7907,-2.7827,-2.7919,-2.7868,-2.7936,-2.7974,-2.7933,-2.8123,-2.8126,-2.82,-2.8237,-2.8303,-2.8369,-2.8398,0,0,-2.7913,-2.7892,-2.7954,-2.7888,-2.7999,-2.7909,-2.8033,-2.8047,-2.8031,-2.8096,-2.81,-2.8209,-2.8242,-2.8307,-2.8551,-2.8574,0,0,0,-2.8005,-2.805,-2.8074,-2.8111,-2.8124,-2.8138,-2.8131,-2.8137,-2.819,-2.8068,-2.8249,-2.8268,-2.8306,-2.8336,-2.8356,-2.8387,-2.814,-2.814,-2.814,-2.8233,-2.8204,-2.8305,-2.8283,-2.832,-2.831,-2.8338,-2.8343,-2.8305,-2.8348,-2.8368,-2.8519,-2.8555,-2.857,-2.8603,-2.8399,-2.8399,-2.8399,-2.84,-2.8433,-2.8492,-2.8437,-2.8514,-2.8484,-2.8549,-2.8543,-2.8514,-2.857,-2.8502,-2.8534,-2.8463,-2.8597,-2.8624,-2.8406,-2.8405,-2.8404,-2.8403,-2.8403,-2.8581,-2.8604,-2.8607,-2.8657,-2.8698,-2.8672,-2.8728,-2.8698,-2.8671,-2.8702,-2.872,-2.8718,-2.8714,-2.8712,-2.8713,-2.8713,-2.8714,-2.8714,-2.8714,-2.8733,-2.8734,-2.8785,-2.8805,-2.8824,-2.8846,-2.8836,-2.8854,-2.8867,-2.884,-2.884,-2.8799,-2.8614,-2.8569,-2.8722,-2.8721,-2.872,-2.8719,-2.8719,-2.895,-2.8896,-2.8974,-2.8993,-2.9014,-2.9057,-2.9016,-2.9056,-2.9066,-2.9095,-2.9045,-2.8913,-2.889,-2.8874,-2.8837,-2.905,-2.905,-2.905,-2.905,-2.9076,-2.906,-2.9133,-2.9166,-2.9193,-2.9164,-2.9254,-2.9247,-2.9231,-2.9235,-2.9199,-2.9147,-2.9132,-2.9118,-2.9097,-2.9061,-2.9327,-2.9327,-2.9327,-2.9208,-2.9193,-2.9276,-2.9258,-2.9271,-2.9283,-2.9367,-2.9406,-2.9377,-2.9338,-2.9239,-2.9227,-2.9142,-2.9115,-2.9077,-2.9045,-2.898,0,0]},{"header":{"parameterUnit":"m.s-1","parameterCategory":1,"la1":30.2992,"la2":30.254,"lo1":-89.0895,"lo2":-89.0443,"dy":0.0025,"dx":0.0025,"nx":19,"ny":19,"refTime":"2026-05-15T21:00:00:Z","depth":0,"parameterNumber":3,"parameterNumberName":"V-component_of_WINDS"},"data":[0,0,0,4.3341,4.3343,4.3397,4.3397,4.3491,4.3492,0,0,0,0,0,0,0,0,0,0,0,4.3341,4.3342,4.3341,4.3343,4.3397,4.3397,4.349,4.3492,0,0,0,0,0,0,0,0,0,0,0,4.334,4.3342,4.3343,4.3343,4.3397,4.3397,4.349,4.344,0,0,0,0,0,0,0,0,0,0,4.3383,4.3399,4.3341,4.3343,4.3343,4.3397,4.3397,4.3438,4.3443,4.3477,0,4.3511,0,4.3503,4.35,4.35,0,0,0,4.3331,4.3394,4.3394,4.3343,4.3344,4.3397,4.3369,4.3441,4.3447,4.3485,4.3513,4.3515,4.3505,4.35,4.3501,4.3733,4.3734,0,0,4.3328,4.3359,4.339,4.34,4.3394,4.3367,4.3371,4.3444,4.3476,4.3513,4.3517,4.3506,4.3501,4.3502,4.3731,4.3733,0,0,0,4.3327,4.3358,4.3355,4.3397,4.3405,4.3369,4.3373,4.3473,4.347,4.3518,4.3507,4.3502,4.3503,4.3729,4.3732,4.3842,0,0,0,4.3325,4.3357,4.3355,4.3374,4.3404,4.344,4.3401,4.3465,4.3472,4.3507,4.3502,4.3504,4.3728,4.3731,4.3835,4.3888,0,0,0,4.3332,4.3358,4.3371,4.3376,4.34,4.3438,4.3438,4.3465,4.3466,4.35,4.3505,4.3726,4.373,4.3828,4.3878,4.3956,0,0,0,4.3348,4.347,4.3373,4.3504,4.34,4.3506,4.3437,4.3515,4.3557,4.3502,4.3728,4.3732,4.3827,4.3871,4.395,4.4026,4.4062,0,0,4.3518,4.3491,4.3566,4.3481,4.3612,4.3495,4.3642,4.3651,4.3626,4.3698,4.3704,4.3837,4.3877,4.3955,4.4253,4.4281,0,0,0,4.363,4.3684,4.3711,4.3753,4.3763,4.3775,4.3759,4.3762,4.3821,4.367,4.3887,4.391,4.3954,4.3989,4.4013,4.4047,4.375,4.3749,4.3749,4.3915,4.3876,4.3995,4.3962,4.4003,4.3984,4.4013,4.4013,4.3963,4.4015,4.4035,4.4221,4.4264,4.4281,4.4318,4.4075,4.4075,4.4075,4.4076,4.4159,4.4227,4.4155,4.4245,4.4203,4.4278,4.4264,4.4225,4.4287,4.4203,4.424,4.4149,4.4314,4.4344,4.4084,4.4082,4.4081,4.408,4.408,4.4339,4.4364,4.4366,4.442,4.4466,4.4428,4.4491,4.445,4.4413,4.445,4.4465,4.4463,4.4454,4.446,4.4461,4.4461,4.4462,4.4462,4.4463,4.4524,4.4522,4.458,4.46,4.4619,4.464,4.4622,4.464,4.4649,4.4615,4.4614,4.4557,4.4338,4.4282,4.4473,4.4471,4.447,4.4469,4.4468,4.4782,4.4717,4.4806,4.4826,4.4844,4.489,4.4838,4.4878,4.4888,4.4919,4.4854,4.47,4.4669,4.4649,4.4602,4.4864,4.4864,4.4864,4.4864,4.4932,4.4913,4.4993,4.5027,4.5056,4.5017,4.5117,4.5103,4.5078,4.5081,4.5038,4.4974,4.4956,4.4935,4.4909,4.4865,4.5187,4.5188,4.5188,4.5087,4.5068,4.5161,4.5136,4.5146,4.5156,4.5248,4.5289,4.5248,4.52,4.5082,4.5068,4.4964,4.4932,4.4881,4.4842,4.476,0,0]}]]